INTELSAT 19

Satellite information

Favourite Embed

Satellite Type and Status

PAYLOADIN ORBIT

Key statistics

Satellite INTELSAT 19 at a glance.

Uptime

4897

Days in orbit

Revolutions

≈ 1.0

Per day

Orbit

GEO

Geostationary Orbit

Inclination

0.0

Latest

Satellite identification and parameters

Extended collection of information and parameters for INTELSAT 19.

Object identification

Identified? True

Debris? False

Object name: INTELSAT 19

International designator: 2012-030A

Object number (NORAD): 38356

Object ID (CCSDS): 38356

Country: INTERNATIONAL TELECOMMUNICATIONS SATELLITE ORGANIZATION (INTELSAT) (ITSO)

Current information (Y/N): Y

RCS size: LARGE

Orbital parameters

Period: 1436.131 minutes

Inclination: 0.0128 deg

SMA: 42165.402 km

Apoapsis: 35799.636 km

Periapsis: 35774.898 km

RAAN: 281.1596 deg

Eccentricy: 0.00029334

Argument of periapsis: 293.155 deg

Mean anomaly: 298.7908 deg

Mean motion: 1.00269395 rev/day

Mean motion (dot): -0.00000046 rev/day2

B* drag term: 0.0 1/REarth

Two-line elements (TLE)

Creation date: Oct. 28, 2025, 2:18 a.m.

Reference frame: TEME

Reference center: EARTH

Epoch: Oct. 27, 2025, 8:42 p.m. UTC

TLE line 0: 0 INTELSAT 19

TLE line 1: 1 38356U 12030A 25300.86282236 -.00000046 00000-0 00000-0 0 9999

TLE line 2: 2 38356 0.0128 281.1596 0002933 293.1550 298.7908 1.00269395 48125

Live tracking on map

Real-time ground track for satellite INTELSAT 19.

In-orbit conjunctions

There are no conjunctions computed for INTELSAT 19, at the moment. Check back to stay up to date, as we update our databases every day.

Go to all conjunctions

Associated space launch

INTELSAT 19 was lifted into orbit during the mission ‘Zenit 3SL | Intelsat 19’, on board a Zenit space rocket.

The launch took place on June 1, 2012, 5:22 a.m. from Launch Platform Odyssey.

For more information about the launch, click the button.

Launch to space Zenit 3SL | Intelsat 19
Zenit 3SL | Intelsat 19

Agency: N/A

Status: Launch Successful

Launch date: June 1, 2012, 5:22 a.m. UTC

Rocket: Zenit

Launch pad: Launch Platform Odyssey

Location: Sea Launch

...

Latest news about this satellite

There are no fresh news available about this satellite. Check back as we update our databases every day.


Newsletter sign-up

Weekly statistics, charts and insights to help you stay on top of the space industry.